Santuari del Far - Susqueda





Hora UTC 21:25
Temperatura 16.0 ºC
Humitat 74.0 %
Pressió 1017.7 hPa
Pluja 0.0 mm
Velocitat vent 0.0 km/h
Direcció vent N

Dades diàries 2022-08-19



Hora UTC (hivern +1h; estiu +2h)
Temperatura (ºC) Humitat (%) Pressió (hPa) Velocitat vent (km/h) Precipitació (mm)
Hora UTC Aire Humitat Pressió Vel. Dir. Vel. Max Dir. Intent. màx 5 min.
00:05 16.4 54.0 1015.0 1.6 N 1.6 0.0
00:10 16.4 53.0 1015.0 0.0 N 4.8 0.0
00:15 16.4 53.0 1014.9 1.6 N 6.4 0.0
00:20 16.5 54.0 1014.9 0.0 N 6.4 0.0
00:25 16.4 54.0 1014.9 0.0 N 6.4 0.0
00:30 16.3 54.0 1014.8 0.0 N 1.6 0.0
00:35 16.2 55.0 1014.8 0.0 N 1.6 0.0
00:40 16.0 55.0 1014.8 0.0 N 0.0 0.0
00:45 15.7 56.0 1014.8 0.0 N 0.0 0.0
00:50 15.4 57.0 1015.0 0.0 N 0.0 0.0
00:55 15.2 58.0 1015.0 0.0 N 0.0 0.0
01:00 15.1 60.0 1014.9 0.0 N 1.6 0.0
01:05 15.0 59.0 1015.0 0.0 N 1.6 0.0
01:10 15.1 59.0 1014.9 0.0 N 1.6 0.0
01:15 15.1 60.0 1015.0 0.0 N 1.6 0.0
01:20 15.1 61.0 1014.8 0.0 N 1.6 0.0
01:25 14.9 61.0 1014.8 0.0 N 1.6 0.0
01:30 14.8 61.0 1014.8 0.0 N 0.0 0.0
01:35 14.8 61.0 1014.7 3.2 N 6.4 0.0
01:40 14.8 63.0 1014.8 3.2 N 6.4 0.0
01:45 14.9 62.0 1014.9 3.2 N 4.8 0.0
01:50 14.9 63.0 1015.0 1.6 N 4.8 0.0
01:55 14.9 63.0 1015.0 0.0 N 3.2 0.0
02:00 14.7 64.0 1015.0 0.0 N 3.2 0.0
02:05 14.6 65.0 1015.0 0.0 N 3.2 0.0
02:10 14.5 65.0 1015.0 0.0 N 3.2 0.0
02:15 14.3 72.0 1015.0 4.8 N 4.8 0.0
02:20 14.1 81.0 1014.9 3.2 N 4.8 0.0
02:25 13.7 84.0 1014.9 3.2 N 6.4 0.0
02:30 13.5 74.0 1014.9 4.8 N 6.4 0.0
02:35 13.8 70.0 1014.9 4.8 N 6.4 0.0
02:40 14.0 68.0 1014.9 4.8 N 6.4 0.0
02:45 14.3 66.0 1015.0 6.4 N 8.0 0.0
02:50 14.8 60.0 1015.0 1.6 N 8.0 0.0
02:55 15.3 60.0 1014.9 4.8 N 4.8 0.0
03:00 15.4 61.0 1015.0 3.2 N 4.8 0.0
03:05 15.3 61.0 1015.1 0.0 N 4.8 0.0
03:10 15.2 60.0 1015.1 1.6 N 4.8 0.0
03:15 15.1 59.0 1015.1 1.6 N 4.8 0.0
03:20 15.2 57.0 1015.1 0.0 N 4.8 0.0
03:25 15.3 60.0 1015.1 3.2 N 4.8 0.0
03:30 15.2 58.0 1015.2 0.0 N 4.8 0.0
03:35 15.1 61.0 1015.3 3.2 N 3.2 0.0
03:40 14.9 59.0 1015.3 0.0 N 3.2 0.0
03:45 14.9 59.0 1015.3 3.2 N 3.2 0.0
03:50 14.9 60.0 1015.3 3.2 N 3.2 0.0
03:55 15.1 57.0 1015.3 4.8 N 6.4 0.0
04:00 15.6 55.0 1015.4 4.8 N 8.0 0.0
04:05 15.9 54.0 1015.3 1.6 N 8.0 0.0
04:10 15.9 53.0 1015.3 0.0 N 4.8 0.0
04:15 15.8 53.0 1015.4 0.0 N 1.6 0.0
04:20 15.7 55.0 1015.4 0.0 N 1.6 0.0
04:25 15.6 57.0 1015.5 1.6 N 3.2 0.0
04:30 15.4 56.0 1015.5 0.0 N 3.2 0.0
04:35 15.3 57.0 1015.5 0.0 N 1.6 0.0
04:40 15.2 57.0 1015.6 1.6 N 1.6 0.0
04:45 15.2 57.0 1015.6 0.0 N 3.2 0.0
04:50 15.2 59.0 1015.7 1.6 N 3.2 0.0
04:55 15.1 57.0 1015.9 1.6 N 3.2 0.0
05:00 15.2 57.0 1016.0 0.0 N 3.2 0.0
05:05 15.2 58.0 1015.8 1.6 N 3.2 0.0
05:10 15.1 59.0 1015.9 1.6 N 3.2 0.0
05:15 15.1 61.0 1015.8 1.6 N 4.8 0.0
05:20 15.0 61.0 1016.0 1.6 N 4.8 0.0
05:25 14.9 63.0 1016.1 3.2 N 3.2 0.0
05:30 14.9 61.0 1016.1 1.6 N 3.2 0.0
05:35 15.0 60.0 1016.2 0.0 N 3.2 0.0
05:40 15.1 60.0 1016.2 1.6 N 4.8 0.0
05:45 15.1 60.0 1016.4 1.6 N 4.8 0.0
05:50 15.2 59.0 1016.4 0.0 N 1.6 0.0
05:55 15.2 59.0 1016.4 0.0 N 3.2 0.0
06:00 15.4 58.0 1016.4 0.0 N 3.2 0.0
06:05 15.6 57.0 1016.4 1.6 N 3.2 0.0
06:10 15.7 58.0 1016.5 0.0 N 3.2 0.0
06:15 15.9 58.0 1016.5 1.6 N 1.6 0.0
06:20 16.0 59.0 1016.5 1.6 N 4.8 0.0
06:25 16.1 63.0 1016.4 0.0 N 4.8 0.0
06:30 16.2 63.0 1016.3 3.2 N 4.8 0.0
06:35 16.3 62.0 1016.4 1.6 N 6.4 0.0
06:40 16.3 58.0 1016.4 0.0 N 6.4 0.0
06:45 16.4 59.0 1016.5 1.6 N 4.8 0.0
06:50 16.6 57.0 1016.6 4.8 N 6.4 0.0
06:55 16.9 60.0 1016.6 1.6 N 6.4 0.0
07:00 17.1 58.0 1016.7 0.0 N 4.8 0.0
07:05 17.4 57.0 1016.6 0.0 N 1.6 0.0
07:10 17.6 57.0 1016.5 0.0 N 3.2 0.0
07:15 17.6 61.0 1016.6 0.0 N 4.8 0.0
07:20 17.7 58.0 1016.7 3.2 N 4.8 0.0
07:25 17.9 58.0 1016.8 1.6 N 3.2 0.0
07:30 17.9 60.0 1016.7 0.0 N 3.2 0.0
07:35 18.0 59.0 1016.8 0.0 N 3.2 0.0
07:40 18.2 59.0 1016.7 0.0 N 4.8 0.0
07:45 18.4 54.0 1016.7 1.6 N 4.8 0.0
07:50 18.3 52.0 1016.7 1.6 N 4.8 0.0
07:55 18.3 54.0 1016.6 3.2 N 4.8 0.0
08:00 18.2 53.0 1016.6 0.0 N 4.8 0.0
08:05 18.3 55.0 1016.6 1.6 N 3.2 0.0
08:10 18.4 55.0 1016.7 1.6 N 3.2 0.0
08:15 18.5 58.0 1016.8 1.6 N 3.2 0.0
08:20 18.7 57.0 1016.8 1.6 N 3.2 0.0
08:25 18.8 50.0 1016.7 1.6 N 3.2 0.0
08:30 18.7 50.0 1016.9 3.2 N 4.8 0.0
08:35 18.7 50.0 1016.7 3.2 N 4.8 0.0
08:40 18.9 48.0 1016.8 3.2 N 3.2 0.0
08:45 19.2 45.0 1016.9 0.0 N 3.2 0.0
08:50 19.4 49.0 1016.8 0.0 N 4.8 0.0
08:55 19.8 57.0 1016.9 0.0 N 4.8 0.0
09:00 19.8 60.0 1016.9 0.0 N 4.8 0.0
09:05 19.6 59.0 1017.0 0.0 N 4.8 0.0
09:10 19.6 63.0 1017.0 1.6 N 4.8 0.0
09:15 19.6 66.0 1016.9 3.2 N 4.8 0.0
09:20 19.6 63.0 1016.9 0.0 N 4.8 0.0
09:25 19.7 65.0 1016.8 0.0 N 4.8 0.0
09:30 19.9 65.0 1016.8 3.2 N 4.8 0.0
09:35 20.1 66.0 1016.9 6.4 N 6.4 0.0
09:40 19.7 67.0 1016.9 1.6 N 6.4 0.0
09:45 19.7 57.0 1017.0 1.6 N 6.4 0.0
09:50 19.8 60.0 1017.0 1.6 N 6.4 0.0
09:55 20.2 60.0 1017.1 1.6 N 3.2 0.0
10:00 20.3 60.0 1017.2 3.2 N 8.0 0.0
10:05 20.4 61.0 1017.2 1.6 N 4.8 0.0
10:10 20.5 57.0 1017.1 4.8 N 8.0 0.0
10:15 20.4 59.0 1017.2 4.8 N 8.0 0.0
10:20 20.4 50.0 1017.1 1.6 N 8.0 0.0
10:25 20.5 53.0 1017.1 6.4 N 9.7 0.0
10:30 20.6 55.0 1017.0 3.2 N 11.3 0.0
10:35 20.6 53.0 1017.0 4.8 N 11.3 0.0
10:40 20.7 54.0 1017.1 1.6 N 8.0 0.0
10:45 20.8 49.0 1017.1 8.0 N 8.0 0.0
10:50 20.6 46.0 1017.1 1.6 N 9.7 0.0
10:55 20.6 46.0 1017.2 3.2 N 9.7 0.0
11:00 20.8 48.0 1017.2 4.8 N 8.0 0.0
11:05 21.1 48.0 1017.3 4.8 N 8.0 0.0
11:10 21.2 50.0 1017.2 1.6 N 9.7 0.0
11:15 21.5 46.0 1017.1 1.6 N 8.0 0.0
11:20 21.9 53.0 1017.0 6.4 N 6.4 0.0
11:25 22.3 43.0 1017.0 6.4 N 6.4 0.0
11:30 22.5 45.0 1017.1 3.2 N 6.4 0.0
11:35 22.8 44.0 1017.0 1.6 N 4.8 0.0
11:40 23.1 45.0 1017.1 4.8 N 4.8 0.0
11:45 23.1 44.0 1017.0 1.6 N 8.0 0.0
11:50 23.4 48.0 1017.0 0.0 N 8.0 0.0
11:55 23.7 44.0 1017.0 1.6 N 11.3 0.0
12:00 23.7 45.0 1017.1 6.4 N 11.3 0.0
12:05 23.3 47.0 1016.9 6.4 N 9.7 0.0
12:10 23.1 45.0 1016.9 0.0 N 9.7 0.0
12:15 23.5 45.0 1017.0 1.6 N 6.4 0.0
12:20 23.6 48.0 1017.0 4.8 N 6.4 0.0
12:25 23.2 50.0 1016.8 4.8 N 9.7 0.0
12:30 22.9 46.0 1016.8 3.2 N 9.7 0.0
12:35 22.2 48.0 1017.0 4.8 N 14.5 0.0
12:40 22.0 51.0 1016.8 3.2 N 14.5 0.0
12:45 22.1 51.0 1016.7 4.8 N 9.7 0.0
12:50 22.2 50.0 1016.8 3.2 N 11.3 0.0
12:55 22.2 51.0 1016.7 8.0 N 16.1 0.0
13:00 22.4 52.0 1016.7 1.6 N 16.1 0.0
13:05 22.4 50.0 1016.5 6.4 N 12.9 0.0
13:10 22.7 50.0 1016.5 4.8 N 11.3 0.0
13:15 23.1 51.0 1016.6 6.4 N 16.1 0.0
13:20 23.2 51.0 1016.5 4.8 N 9.7 0.0
13:25 23.2 49.0 1016.4 4.8 N 11.3 0.0
13:30 23.3 52.0 1016.4 6.4 N 9.7 0.0
13:35 23.3 49.0 1016.5 8.0 N 9.7 0.0
13:40 23.2 48.0 1016.5 1.6 N 9.7 0.0
13:45 23.3 47.0 1016.3 8.0 N 8.0 0.0
13:50 23.4 48.0 1016.4 4.8 N 9.7 0.0
13:55 23.4 48.0 1016.4 6.4 N 11.3 0.0
14:00 23.3 47.0 1016.5 3.2 N 11.3 0.0
14:05 23.4 46.0 1016.4 4.8 N 11.3 0.0
14:10 23.4 48.0 1016.4 4.8 N 9.7 0.0
14:15 23.4 46.0 1016.4 4.8 N 8.0 0.0
14:20 23.4 48.0 1016.5 3.2 N 8.0 0.0
14:25 23.4 47.0 1016.4 8.0 N 11.3 0.0
14:30 23.4 46.0 1016.6 4.8 N 11.3 0.0
14:35 23.2 45.0 1016.5 4.8 N 17.7 0.0
14:40 23.1 47.0 1016.5 4.8 N 17.7 0.0
14:45 23.3 47.0 1016.4 4.8 N 11.3 0.0
14:50 23.3 47.0 1016.4 3.2 N 9.7 0.0
14:55 23.3 47.0 1016.3 1.6 N 9.7 0.0
15:00 23.6 45.0 1016.3 3.2 N 6.4 0.0
15:05 23.4 43.0 1016.4 3.2 N 11.3 0.0
15:10 23.3 48.0 1016.3 6.4 N 11.3 0.0
15:15 23.1 49.0 1016.3 1.6 N 11.3 0.0
15:20 22.8 51.0 1016.2 4.8 N 11.3 0.0
15:25 22.6 52.0 1016.1 3.2 N 12.9 0.0
15:30 22.4 54.0 1016.0 4.8 N 12.9 0.0
15:35 22.3 53.0 1016.0 3.2 N 12.9 0.0
15:40 22.2 56.0 1016.0 4.8 N 9.7 0.0
15:45 22.2 57.0 1016.1 3.2 N 12.9 0.0
15:50 22.3 57.0 1016.1 9.7 N 12.9 0.0
15:55 22.2 56.0 1016.0 4.8 N 12.9 0.0
16:00 22.2 57.0 1016.1 4.8 N 8.0 0.0
16:05 22.2 57.0 1016.2 3.2 N 6.4 0.0
16:10 22.2 57.0 1016.1 0.0 N 6.4 0.0
16:15 22.1 59.0 1016.0 1.6 N 8.0 0.0
16:20 21.9 59.0 1016.0 1.6 N 8.0 0.0
16:25 21.6 59.0 1016.0 1.6 N 8.0 0.0
16:30 21.6 59.0 1016.1 3.2 N 8.0 0.0
16:35 21.6 59.0 1016.0 3.2 N 8.0 0.0
16:40 21.6 58.0 1016.0 4.8 N 6.4 0.0
16:45 21.6 58.0 1015.9 3.2 N 9.7 0.0
16:50 21.6 57.0 1016.1 0.0 N 9.7 0.0
16:55 21.6 58.0 1016.2 0.0 N 4.8 0.0
17:00 21.4 59.0 1016.0 1.6 N 4.8 0.0
17:05 21.2 60.0 1015.9 1.6 N 4.8 0.0
17:10 21.1 61.0 1015.8 1.6 N 4.8 0.0
17:15 20.8 61.0 1015.8 1.6 N 4.8 0.0
17:20 20.4 63.0 1015.7 3.2 N 4.8 0.0
17:25 19.9 64.0 1015.8 3.2 N 4.8 0.0
17:30 19.4 67.0 1015.8 3.2 N 6.4 0.0
17:35 19.2 69.0 1015.8 4.8 N 6.4 0.0
17:40 18.9 67.0 1015.8 4.8 N 4.8 0.0
17:45 18.8 68.0 1015.7 1.6 N 4.8 0.0
17:50 18.8 68.0 1015.7 3.2 N 4.8 0.0
17:55 18.8 68.0 1015.8 4.8 N 4.8 0.0
18:00 18.7 67.0 1015.9 1.6 N 4.8 0.0
18:05 18.7 67.0 1016.0 0.0 N 4.8 0.0
18:10 18.6 67.0 1016.1 0.0 N 4.8 0.0
18:15 18.6 68.0 1016.1 0.0 N 3.2 0.0
18:20 18.6 68.0 1016.1 0.0 N 3.2 0.0
18:25 18.6 67.0 1016.0 1.6 N 3.2 0.0
18:30 18.4 68.0 1016.3 0.0 N 3.2 0.0
18:35 18.4 68.0 1016.3 0.0 N 1.6 0.0
18:40 18.3 69.0 1016.2 0.0 N 1.6 0.0
18:45 18.1 69.0 1016.3 0.0 N 1.6 0.0
18:50 17.9 69.0 1016.5 0.0 N 1.6 0.0
18:55 17.9 70.0 1016.6 1.6 N 3.2 0.0
19:00 17.9 69.0 1016.6 0.0 N 3.2 0.0
19:05 17.8 69.0 1016.6 3.2 N 4.8 0.0
19:10 17.7 69.0 1016.7 1.6 N 4.8 0.0
19:15 17.7 68.0 1016.8 0.0 N 3.2 0.0
19:20 17.7 68.0 1016.8 0.0 N 1.6 0.0
19:25 17.8 67.0 1016.8 1.6 N 1.6 0.0
19:30 17.8 67.0 1017.0 0.0 N 3.2 0.0
19:35 17.8 68.0 1016.8 0.0 N 1.6 0.0
19:40 17.7 67.0 1017.0 1.6 N 1.6 0.0
19:45 17.7 67.0 1017.0 0.0 N 3.2 0.0
19:50 17.7 68.0 1017.1 0.0 N 3.2 0.0
19:55 17.7 67.0 1017.2 1.6 N 3.2 0.0
20:00 17.7 67.0 1017.1 0.0 N 3.2 0.0
20:05 17.7 67.0 1017.1 1.6 N 3.2 0.0
20:10 17.6 67.0 1017.2 0.0 N 1.6 0.0
20:15 17.6 67.0 1017.3 0.0 N 1.6 0.0
20:20 17.6 67.0 1017.2 0.0 N 0.0 0.0
20:25 17.4 68.0 1017.3 0.0 N 0.0 0.0
20:30 17.2 68.0 1017.4 0.0 N 0.0 0.0
20:35 17.1 69.0 1017.6 0.0 N 0.0 0.0
20:40 16.9 69.0 1017.6 0.0 N 0.0 0.0
20:45 16.8 70.0 1017.5 0.0 N 0.0 0.0
20:50 16.7 70.0 1017.6 0.0 N 1.6 0.0
20:55 16.6 70.0 1017.6 0.0 N 1.6 0.0
21:00 16.5 71.0 1017.6 0.0 N 0.0 0.0
21:05 16.4 71.0 1017.5 0.0 N 0.0 0.0
21:10 16.3 72.0 1017.6 0.0 N 0.0 0.0
21:15 16.2 73.0 1017.6 0.0 N 0.0 0.0
21:20 16.1 74.0 1017.8 0.0 N 0.0 0.0
21:25 16.0 74.0 1017.7 0.0 N 0.0 0.0
Màxima 23.7 84.0 1017.8 9.7 N 17.7 0.0
Mínima 13.5 43.0 1014.7
Total 0.0